Starlink 31497

operational
NORAD ID: 60592 Int'l Des: 2024-150 Owner: SPXS Country: US Constellation: starlink
LEOCIRCULAR

Über Starlink 31497

Beschreibung wird geladen...

Live-Position

3D-Globus wird geladen...

Nächste Überflüge

Höhenverlauf

Altitude vs Time

uPlot chart will show altitude changes over time

Zweizeiliger Elementsatz

1 60592U 24150K 25353.24148059 .00003573 00000-0 13264-3 0 9992
2 60592 53.1624 320.7553 0001238 96.9551 263.1590 15.30212401 75725
Epoch: 19. Dez. 2025 • Age: 12 hours

Aktueller Status

Höhe 481.3 km
Geschwindigkeit 7.62 km/s
Subsatellitenpunkt -21.03°S, 161.53°E
Startdatum 20. Aug. 2024
Alter 1.3 years
Typ internet

Technische Details

Klassifizierung Payload
Masse 730.00 kg
Trockenmasse 700.00 kg
Gesamtmasse 730.00 kg
Länge 0.30 m
Durchmesser 4.10 m
Spannweite 29.00 m
Form Box + pan
Hersteller SPXS
Bus-Typ Starlink V2M
Phasenstatus In Orbit
Besitzer/Staat SPXS/US

Große Konstellationen

Loading constellations...